Stations météo

Publicité
Brest, France (7110): Température de l'air & dewpoint: 26.10.2020 00:00:00 - 01.11.2020 00:00:00 (CET)Brest, France (7110): Température de l'air 5cm: 26.10.2020 00:00:00 - 01.11.2020 00:00:00 (CET)Brest, France (7110): Température de l'air -20cm & Température de l'air -100cm: 26.10.2020 00:00:00 - 01.11.2020 00:00:00 (CET)Brest, France (7110): Vitesse du vent & gusts: 26.10.2020 00:00:00 - 01.11.2020 00:00:00 (CET)Brest, France (7110): Direction du vent: 26.10.2020 00:00:00 - 01.11.2020 00:00:00 (CET)Brest, France (7110): reduced air pressure: 26.10.2020 00:00:00 - 01.11.2020 00:00:00 (CET)Brest, France (7110): visibility: 26.10.2020 00:00:00 - 01.11.2020 00:00:00 (CET)Brest, France (7110): Ensoleillement: 26.10.2020 00:00:00 - 01.11.2020 00:00:00 (CET)Brest, France (7110): Quantités de précipitations: 26.10.2020 00:00:00 - 01.11.2020 00:00:00 (CET)
Date & Time tt [°C] td [°C] tt 5cm [°C] tt -20cm [°C] tt -100cm [°C] ff [km/h] ff [knt] fx [km/h] fx [knt] dd ppp [hPa] vv [km] sd [min] rr [mm]
01.11.2020 00:00:00 - - - - - - - - - - - - - -
31.10.2020 23:00:00 11,3 9,9 10,3 13,3 13,5 22 12 40 22 S 1014,2 12 0 0,4
31.10.2020 22:00:00 11,3 9,4 10,1 13,3 13,4 21 11 33 18 SSW 1015,0 12 0 0,0
31.10.2020 21:00:00 11,1 9,0 10,0 13,3 13,5 18 10 27 15 SSW 1014,9 13 0 0,2
31.10.2020 20:00:00 11,7 7,2 10,6 13,4 13,5 14 8 28 15 SW 1015,3 18 0 0,0
31.10.2020 19:00:00 11,6 6,7 10,2 13,4 13,5 19 11 27 14 SW 1015,4 18 0 0,0
31.10.2020 18:00:00 11,7 7,4 10,3 13,4 13,5 14 8 27 15 SW 1015,1 16 0 0,0
31.10.2020 17:00:00 12,3 7,0 11,7 13,4 13,5 17 9 37 20 WSW 1015,7 19 5 0,0
31.10.2020 16:00:00 13,0 6,8 13,4 13,4 13,5 25 14 42 23 WSW 1015,0 20 31 0,0
31.10.2020 15:00:00 13,1 8,0 14,1 13,4 13,5 23 12 48 26 W 1014,7 18 23 0,0
31.10.2020 14:00:00 13,6 9,0 13,7 13,3 13,5 24 13 49 26 W 1014,2 14 39 0,0
31.10.2020 13:00:00 13,1 9,7 12,5 13,3 13,5 24 13 49 26 W 1013,7 13 11 0,0
31.10.2020 12:00:00 12,7 11,9 12,6 13,3 13,5 26 14 51 28 W 1013,0 6 0 0,6
31.10.2020 11:00:00 13,7 13,2 13,4 13,3 13,5 36 19 88 48 SW 1011,1 3,5 0 8,1
31.10.2020 10:00:00 15,0 14,4 14,5 13,3 13,5 47 25 77 42 S 1009,6 1,4 0 6,3
31.10.2020 09:00:00 14,8 13,8 14,1 13,2 13,5 50 27 80 43 S 1010,2 3,9 0 0,6
31.10.2020 08:00:00 14,5 13,7 13,5 13,2 13,5 48 26 73 39 S 1010,7 3,8 0 1,0
31.10.2020 07:00:00 14,5 12,5 13,5 13,2 13,4 43 23 75 41 S 1011,9 3,9 0 0,2
31.10.2020 06:00:00 14,7 11,8 13,8 13,3 13,4 40 22 64 35 S 1013,0 44 0 0,0
31.10.2020 05:00:00 14,2 12,1 13,3 13,2 13,4 38 20 62 34 S 1014,5 20 0 0,0
31.10.2020 04:00:00 13,9 12,5 13,2 13,2 13,5 35 19 57 31 S 1015,3 44 0 0,0
31.10.2020 03:00:00 13,7 13,1 13,4 13,2 13,4 32 18 50 27 S 1016,5 19 0 0,2
31.10.2020 02:00:00 13,7 13,1 13,4 13,2 13,5 32 17 61 33 S 1016,8 9 0 0,0
31.10.2020 01:00:00 13,7 13,1 13,3 13,2 13,5 34 19 56 30 S 1017,9 13 0 0,0
31.10.2020 00:00:00 13,4 12,9 13,1 13,3 13,5 35 19 51 28 S 1018,6 46 0 0,0
30.10.2020 23:00:00 13,3 12,8 13,1 13,2 13,5 34 19 53 28 S 1019,3 32 0 0,2
30.10.2020 22:00:00 13,3 12,8 13,2 13,2 13,4 30 16 49 27 S 1019,8 9 0 0,2
30.10.2020 21:00:00 13,5 13,0 13,3 13,2 13,5 30 16 46 25 S 1020,3 7 0 0,0
30.10.2020 20:00:00 13,6 13,1 13,4 13,2 13,5 27 14 40 21 S 1020,6 9 0 0,2
30.10.2020 19:00:00 13,6 13,1 13,4 13,2 13,5 26 14 40 22 S 1020,8 3,2 0 0,2
30.10.2020 18:00:00 13,7 13,1 13,4 13,2 13,5 24 13 37 20 S 1020,5 16 0 0,0
30.10.2020 17:00:00 13,6 13,0 13,4 13,1 13,5 23 13 48 26 S 1020,6 3,4 0 0,6
30.10.2020 16:00:00 13,7 12,9 13,6 13,1 13,5 28 15 51 28 SSW 1021,0 9 0 0,4
30.10.2020 15:00:00 14,0 12,9 13,8 13,0 13,5 34 19 54 29 SSW 1021,0 3,1 0 0,4
30.10.2020 14:00:00 14,2 12,9 13,8 13,0 13,5 30 16 51 28 SSW 1021,1 7 0 0,2
30.10.2020 13:00:00 14,6 12,6 14,1 13,0 13,5 32 17 63 34 SSW 1021,4 13 0 0,2
30.10.2020 12:00:00 14,7 12,6 14,0 13,0 13,5 37 20 55 30 SSW 1021,4 12 0 0,0
30.10.2020 11:00:00 14,3 12,8 13,8 13,0 13,5 32 18 50 27 SSW 1021,1 6 0 0,0
30.10.2020 10:00:00 14,0 13,0 13,5 13,0 13,5 30 16 55 30 SSW 1020,9 10 0 0,2
30.10.2020 09:00:00 14,0 12,7 13,2 13,0 13,5 31 17 50 27 SSW 1020,7 13 0 0,0
30.10.2020 08:00:00 13,5 12,9 13,2 13,0 13,5 31 17 55 30 SSW 1020,1 11 0 0,2
30.10.2020 07:00:00 13,6 12,7 13,0 13,0 13,5 35 19 56 30 SSW 1019,8 14 0 0,2
30.10.2020 06:00:00 13,8 12,4 13,0 13,0 13,5 29 15 54 29 SSW 1019,7 9 0 0,0
30.10.2020 05:00:00 14,1 12,1 13,3 13,0 13,5 32 17 53 29 SSW 1019,6 20 0 0,0
30.10.2020 04:00:00 13,6 12,0 13,3 13,0 13,5 30 16 52 28 SW 1019,8 44 0 0,0
30.10.2020 03:00:00 13,6 12,7 13,0 13,0 13,5 36 19 53 29 SW 1020,1 40 0 0,0
30.10.2020 02:00:00 13,6 12,8 13,2 12,9 13,5 34 19 56 31 SSW 1020,0 11 0 0,2
30.10.2020 01:00:00 14,0 12,4 13,6 12,9 13,5 34 18 56 30 SSW 1019,8 45 0 0,0
30.10.2020 00:00:00 14,1 13,1 13,6 12,9 13,5 34 18 53 28 SSW 1019,9 12 0 0,0
29.10.2020 23:00:00 14,0 13,2 13,6 12,9 13,5 34 19 52 28 SSW 1019,7 10 0 0,0
29.10.2020 22:00:00 14,0 13,2 13,6 12,9 13,5 30 16 51 28 SSW 1019,6 8 0 0,2
29.10.2020 21:00:00 14,2 13,1 13,6 12,9 13,5 30 16 52 28 SSW 1019,5 9 0 0,0
29.10.2020 20:00:00 14,3 13,0 14,1 12,8 13,5 30 16 51 28 SSW 1019,5 13 0 0,0
29.10.2020 19:00:00 14,3 13,0 14,1 12,8 13,5 30 16 49 26 SW 1019,2 15 0 0,0
29.10.2020 18:00:00 14,5 12,5 14,3 12,8 13,5 33 18 60 33 SSW 1019,1 16 0 0,0
29.10.2020 17:00:00 14,8 12,5 15,0 12,7 13,5 34 18 57 31 SW 1019,0 17 0 0,0
29.10.2020 16:00:00 15,0 12,5 15,5 12,7 13,5 31 17 52 28 SW 1018,8 25 17 0,0
29.10.2020 15:00:00 15,2 13,0 15,6 12,7 13,5 35 19 62 34 SW 1018,9 16 0 0,0
29.10.2020 14:00:00 15,0 13,0 15,5 12,6 13,5 39 21 65 35 SW 1018,9 14 0 0,0
29.10.2020 13:00:00 14,9 12,8 15,1 12,6 13,5 37 20 58 32 SW 1019,2 14 0 0,0
29.10.2020 12:00:00 14,7 12,7 15,0 12,6 13,5 36 19 57 31 SW 1019,2 16 0 0,0
29.10.2020 11:00:00 14,4 12,6 13,6 12,6 13,5 37 20 56 30 SW 1019,0 11 0 0,0
29.10.2020 10:00:00 14,0 12,6 13,7 12,6 13,5 33 18 58 31 SW 1018,6 14 0 0,0
29.10.2020 09:00:00 13,7 12,4 13,0 12,7 13,5 33 18 56 31 SW 1018,2 16 0 0,0
29.10.2020 08:00:00 13,4 12,3 13,0 12,7 13,7 32 17 51 28 SW 1017,7 14 0 0,0
29.10.2020 07:00:00 13,3 12,2 12,8 12,5 13,5 28 15 42 23 SW 1017,5 15 0 0,0
29.10.2020 06:00:00 13,1 12,0 12,2 12,6 13,5 26 14 41 22 SW 1017,3 14 0 0,0
29.10.2020 05:00:00 12,5 11,2 11,0 12,6 13,6 18 10 31 17 SW 1017,4 11 0 0,0
29.10.2020 04:00:00 11,7 10,4 10,2 12,5 13,5 19 10 28 15 SW 1017,0 14 0 0,0
29.10.2020 03:00:00 11,2 9,9 10,2 12,6 13,5 18 10 41 22 WSW 1017,1 45 0 0,0
29.10.2020 02:00:00 11,9 10,6 11,1 12,6 13,6 21 12 38 21 WSW 1016,9 18 0 0,0
29.10.2020 01:00:00 12,0 10,4 10,9 12,6 13,6 21 11 33 18 WSW 1016,8 17 0 0,0
29.10.2020 00:00:00 11,6 10,0 10,8 12,6 13,5 20 11 40 22 WSW 1016,5 13 0 0,0
28.10.2020 23:00:00 11,9 10,5 10,8 12,6 13,6 29 16 42 23 WSW 1015,7 14 0 0,2
28.10.2020 22:00:00 11,8 10,0 10,6 12,6 13,6 18 10 42 23 WSW 1015,4 12 0 0,6
28.10.2020 21:00:00 12,2 9,4 10,8 12,6 13,6 22 12 49 26 WSW 1014,5 15 0 0,0
28.10.2020 20:00:00 12,7 9,3 12,0 12,6 13,6 30 16 53 29 WSW 1013,6 20 0 0,0
28.10.2020 19:00:00 12,8 9,6 12,0 12,5 13,6 36 19 54 29 WSW 1012,5 19 0 0,0
28.10.2020 18:00:00 12,7 9,5 11,9 12,5 13,6 30 16 62 34 WSW 1011,7 19 0 0,0
28.10.2020 17:00:00 13,1 9,7 12,9 12,5 13,5 33 18 51 28 WSW 1011,1 16 0 0,0
28.10.2020 16:00:00 13,5 9,9 13,6 12,5 13,6 36 19 59 32 WSW 1010,6 12 0 0,0
28.10.2020 15:00:00 13,6 9,4 14,2 12,5 13,6 35 19 59 32 WSW 1010,2 18 0 0,0
28.10.2020 14:00:00 13,9 10,5 14,3 12,4 13,6 38 21 65 35 SW 1009,7 19 1 0,0
28.10.2020 13:00:00 13,9 9,3 14,2 12,5 13,6 39 21 60 33 WSW 1009,5 20 3 0,0
28.10.2020 12:00:00 13,1 10,1 12,8 12,5 13,6 35 19 57 31 SW 1009,4 19 0 0,0
28.10.2020 11:00:00 12,9 9,9 12,3 12,5 13,6 39 21 63 34 SW 1009,1 12 0 0,0
28.10.2020 10:00:00 12,6 9,4 11,5 12,5 13,6 31 17 58 31 SW 1008,5 18 0 0,0
28.10.2020 09:00:00 12,5 10,2 11,2 12,5 13,6 33 18 49 27 SW 1008,1 15 0 0,0
28.10.2020 08:00:00 12,3 9,3 10,7 12,5 13,6 29 15 43 23 SW 1007,6 18 0 0,0
28.10.2020 07:00:00 11,7 8,4 10,8 12,5 13,6 27 15 64 35 SW 1007,2 43 0 0,0
28.10.2020 06:00:00 11,4 9,1 9,9 12,6 13,6 29 15 47 25 SW 1007,3 16 0 0,0
28.10.2020 05:00:00 11,4 7,9 10,0 12,6 13,6 31 17 59 32 WSW 1007,1 20 0 0,0
28.10.2020 04:00:00 11,5 8,5 10,1 12,6 13,6 27 14 50 27 SW 1007,0 17 0 0,0
28.10.2020 03:00:00 11,0 8,2 9,6 12,6 13,6 26 14 53 28 SW 1007,2 38 0 0,6
28.10.2020 02:00:00 11,8 8,5 10,0 12,7 13,6 28 15 46 25 SW 1006,9 18 0 0,0
28.10.2020 01:00:00 11,7 7,4 10,3 12,6 13,6 30 16 60 33 WSW 1007,0 20 0 0,0
28.10.2020 00:00:00 11,9 8,4 10,5 12,7 13,6 29 15 48 26 SW 1006,5 19 0 0,0
27.10.2020 23:00:00 11,4 8,6 9,4 12,7 13,6 24 13 37 20 SW 1006,5 20 0 0,0
27.10.2020 22:00:00 10,9 8,8 9,2 12,7 13,6 19 10 30 16 SW 1006,1 19 0 0,0
27.10.2020 21:00:00 11,2 9,6 10,0 12,7 13,7 18 10 32 17 WSW 1005,2 16 0 0,0
27.10.2020 20:00:00 11,1 8,8 9,2 12,7 13,7 17 9 28 15 SW 1004,7 38 0 0,0
27.10.2020 19:00:00 11,0 8,9 9,6 12,6 13,7 17 9 30 16 WSW 1004,1 41 0 1,4
27.10.2020 18:00:00 12,5 9,9 11,9 12,6 13,7 16 9 41 22 WSW 1003,2 20 0 0,0
27.10.2020 17:00:00 13,3 10,5 13,1 12,5 13,6 19 10 47 25 W 1002,4 20 13 0,0
27.10.2020 16:00:00 14,3 11,6 14,6 12,5 13,7 28 15 44 24 WSW 1001,8 20 25 0,0
27.10.2020 15:00:00 13,8 11,3 14,4 12,4 13,7 24 13 45 25 SW 1001,1 19 7 0,0
27.10.2020 14:00:00 14,4 12,3 15,2 12,4 13,7 22 12 44 24 W 1001,3 15 10 0,0
27.10.2020 13:00:00 14,1 13,5 14,1 12,3 13,7 22 12 56 30 W 1000,4 9 0 0,4
27.10.2020 12:00:00 14,7 14,2 14,6 12,3 13,7 29 16 60 32 WSW 999,9 8 0 0,2
27.10.2020 11:00:00 14,4 14,1 14,0 12,3 13,7 37 20 62 33 SW 999,8 2,5 0 1,4
27.10.2020 10:00:00 13,9 13,6 12,8 12,4 13,7 34 18 58 31 SW 1000,0 2,8 0 1,0
27.10.2020 09:00:00 12,8 12,5 11,7 12,4 13,7 31 17 48 26 SSW 1000,5 2,5 0 2,4
27.10.2020 08:00:00 11,7 11,4 11,0 12,4 13,7 31 17 46 25 S 1001,0 2,1 0 3,0
27.10.2020 07:00:00 11,1 10,6 10,5 12,4 13,7 31 17 51 28 S 1002,1 2,7 0 2,5
27.10.2020 06:00:00 10,6 10,1 9,7 12,4 13,7 27 14 46 25 S 1003,3 4,7 0 1,4
27.10.2020 05:00:00 10,0 9,1 9,5 12,5 13,7 19 10 33 18 S 1004,3 7 0 1,4
27.10.2020 04:00:00 10,3 8,9 9,5 12,5 13,7 23 12 42 23 SW 1005,5 19 0 0,8
27.10.2020 03:00:00 11,0 9,4 10,0 12,5 13,8 23 12 44 24 SW 1006,5 14 0 0,4
27.10.2020 02:00:00 10,6 9,4 8,9 12,5 13,7 20 11 27 15 SW 1007,1 20 0 0,0
27.10.2020 01:00:00 9,6 8,4 8,7 12,5 13,7 15 8 41 22 WSW 1007,9 15 0 0,2
27.10.2020 00:00:00 9,6 8,2 8,1 12,5 13,7 13 7 22 12 WSW 1008,4 51 0 0,0
26.10.2020 23:00:00 9,7 8,1 7,4 12,6 13,7 13 7 26 14 WSW 1008,8 37 0 1,4
26.10.2020 22:00:00 9,2 7,5 6,6 12,6 13,7 11 6 18 10 SW 1008,9 19 0 0,0
26.10.2020 21:00:00 8,9 6,9 6,4 12,6 13,7 8 4 21 11 W 1008,6 18 0 0,0
26.10.2020 20:00:00 8,9 6,9 6,1 12,6 13,8 13 7 26 14 W 1008,5 20 0 0,0
26.10.2020 19:00:00 9,9 7,1 8,2 12,6 13,7 12 7 27 15 W 1008,3 35 0 0,0
26.10.2020 18:00:00 10,8 7,5 9,5 12,5 13,7 17 9 40 21 W 1007,8 20 27 0,0
26.10.2020 17:00:00 12,2 7,3 11,2 12,6 13,7 24 13 51 28 W 1007,5 36 41 0,0
26.10.2020 16:00:00 12,3 7,6 12,0 12,5 13,7 25 13 53 29 WNW 1007,3 10 32 0,0
26.10.2020 15:00:00 12,2 9,2 10,8 12,5 13,7 30 16 55 30 W 1006,9 18 25 0,2
26.10.2020 14:00:00 13,3 8,8 9,8 12,5 13,8 29 15 59 32 W 1006,8 19 51 0,0
26.10.2020 13:00:00 10,6 7,3 9,6 12,5 13,7 30 16 57 31 W 1007,0 2,7 22 0,4
26.10.2020 12:00:00 10,9 8,1 10,1 12,5 13,7 25 14 51 28 WNW 1006,8 14 31 0,4
26.10.2020 11:00:00 12,7 8,4 12,4 12,6 13,7 26 14 45 24 W 1006,2 18 58 0,0
26.10.2020 10:00:00 12,0 8,1 9,6 12,6 13,7 26 14 48 26 W 1006,0 20 48 0,0
26.10.2020 09:00:00 10,6 8,0 7,4 12,7 13,8 19 10 32 17 W 1005,4 19 12 0,2
26.10.2020 08:00:00 9,1 7,4 7,2 12,7 13,7 15 8 40 22 WSW 1004,8 39 0 0,0
26.10.2020 07:00:00 9,2 6,8 7,0 12,7 13,7 15 8 35 19 WSW 1004,0 19 0 0,0
26.10.2020 06:00:00 9,0 6,3 7,7 12,7 13,7 22 12 46 25 WNW 1003,9 6 0 1,4
26.10.2020 05:00:00 10,4 7,1 8,1 12,8 13,8 20 11 38 21 W 1003,2 40 0 0,0
26.10.2020 04:00:00 9,4 7,0 6,4 12,8 13,7 16 9 29 16 W 1003,0 20 0 0,0
26.10.2020 03:00:00 9,1 6,9 6,9 12,9 13,7 11 6 29 15 W 1003,2 50 0 0,0
26.10.2020 02:00:00 8,6 6,4 5,9 12,9 13,7 16 9 27 15 W 1002,9 51 0 0,0
26.10.2020 01:00:00 8,7 6,3 6,9 12,9 13,7 13 7 24 13 WSW 1002,7 48 0 0,0
26.10.2020 00:00:00 8,8 5,9 5,9 13,0 13,7 17 9 27 15 WSW 1002,8 56 0 0,0

tt = Température de l'air
td = dewpoint
tt 5cm = Température de l'air 5cm
tt -20cm = Température de l'air -20cm
tt -100cm = Température de l'air -100cm
ff = Vitesse du vent
fx = gusts
dd = Direction du vent
ppp = reduced air pressure
vv = visibility
sd = Ensoleillement
rr = Quantités de précipitations

stations d'obs. à proximité